TimeCST,TemperatureF,Dew PointF,Humidity,Sea Level PressureIn,VisibilityMPH,Wind Direction,Wind SpeedMPH,Gust SpeedMPH,PrecipitationIn,Events,Conditions,WindDirDegrees,DateUTC
12:14 AM,34.0,32.0,92,30.14,10.0,NNW,6.9,-,N/A,,Clear,330,2012-11-20 06:14:00
12:35 AM,33.1,31.6,94,30.14,10.0,NNW,4.6,-,N/A,,Clear,330,2012-11-20 06:35:00
12:55 AM,33.3,31.8,94,30.14,10.0,NW,6.9,-,N/A,,Clear,310,2012-11-20 06:55:00
1:15 AM,31.5,30.0,94,30.15,7.0,WNW,8.1,-,N/A,,Clear,300,2012-11-20 07:15:00
1:34 AM,31.3,30.2,96,30.15,7.0,WNW,8.1,-,N/A,,Clear,300,2012-11-20 07:34:00
1:55 AM,29.8,28.8,96,30.15,7.0,WNW,9.2,-,N/A,,Clear,290,2012-11-20 07:55:00
2:15 AM,29.7,29.1,98,30.16,7.0,NW,5.8,-,N/A,,Clear,310,2012-11-20 08:15:00
2:35 AM,29.3,28.8,98,30.17,7.0,WNW,9.2,-,N/A,,Clear,290,2012-11-20 08:35:00
2:55 AM,28.2,27.5,97,30.16,7.0,WNW,9.2,-,N/A,,Clear,300,2012-11-20 08:55:00
3:15 AM,27.0,26.4,98,30.17,7.0,WNW,8.1,-,N/A,,Clear,300,2012-11-20 09:15:00
3:35 AM,28.4,28.2,99,30.17,7.0,WNW,9.2,-,N/A,,Clear,300,2012-11-20 09:35:00
3:55 AM,27.5,27.1,99,30.18,7.0,WNW,6.9,-,N/A,,Clear,300,2012-11-20 09:55:00
4:15 AM,27.5,27.1,99,30.17,7.0,WNW,9.2,-,N/A,,Clear,300,2012-11-20 10:15:00
4:35 AM,26.6,26.2,99,30.17,5.0,WNW,8.1,-,N/A,,Clear,290,2012-11-20 10:35:00
4:55 AM,28.0,27.9,99,30.16,5.0,West,9.2,-,N/A,,Clear,280,2012-11-20 10:55:00
5:15 AM,26.6,26.6,100,30.17,5.0,WNW,8.1,-,N/A,,Clear,300,2012-11-20 11:15:00
5:35 AM,26.4,26.2,99,30.17,5.0,WNW,8.1,-,N/A,,Clear,300,2012-11-20 11:35:00
5:55 AM,26.2,26.2,100,30.16,4.0,NNW,4.6,-,N/A,,Clear,340,2012-11-20 11:55:00
6:15 AM,27.7,28.0,100,30.17,5.0,West,6.9,-,N/A,,Clear,280,2012-11-20 12:15:00
6:34 AM,28.9,28.9,100,30.17,5.0,West,5.8,-,N/A,,Clear,270,2012-11-20 12:34:00
6:55 AM,27.5,27.1,99,30.17,5.0,WNW,4.6,-,N/A,,Clear,290,2012-11-20 12:55:00
7:15 AM,26.2,26.1,99,30.18,4.0,West,4.6,-,N/A,,Clear,280,2012-11-20 13:15:00
7:35 AM,24.6,24.6,100,30.19,4.0,WNW,6.9,-,N/A,,Clear,290,2012-11-20 13:35:00
7:55 AM,27.3,27.1,99,30.19,4.0,West,3.5,-,N/A,,Clear,270,2012-11-20 13:55:00
8:15 AM,27.0,26.6,99,30.19,4.0,Calm,Calm,-,N/A,,Clear,0,2012-11-20 14:15:00
8:35 AM,29.1,28.4,97,30.20,4.0,Calm,Calm,-,N/A,,Clear,0,2012-11-20 14:35:00
8:55 AM,31.8,31.1,97,30.20,4.0,Calm,Calm,-,N/A,,Clear,0,2012-11-20 14:55:00
9:15 AM,33.8,32.5,95,30.19,5.0,Calm,Calm,-,N/A,,Clear,0,2012-11-20 15:15:00
9:35 AM,37.8,34.3,87,30.18,7.0,Calm,Calm,-,N/A,,Clear,0,2012-11-20 15:35:00
9:55 AM,41.0,35.8,82,30.18,7.0,SSE,5.8,-,N/A,,Clear,150,2012-11-20 15:55:00
10:15 AM,42.4,35.8,77,30.18,10.0,SSE,5.8,-,N/A,,Clear,150,2012-11-20 16:15:00
10:35 AM,45.0,36.3,72,30.18,10.0,SSE,4.6,-,N/A,,Clear,150,2012-11-20 16:35:00
10:55 AM,47.3,33.8,59,30.18,10.0,South,4.6,-,N/A,,Clear,190,2012-11-20 16:55:00
11:15 AM,49.8,32.5,51,30.17,10.0,South,6.9,-,N/A,,Clear,170,2012-11-20 17:15:00
11:34 AM,52.0,30.9,45,30.17,10.0,South,5.8,-,N/A,,Clear,170,2012-11-20 17:34:00
11:55 AM,54.0,26.8,35,30.16,10.0,South,5.8,-,N/A,,Clear,170,2012-11-20 17:55:00
12:14 PM,55.8,22.1,27,30.15,10.0,South,5.8,-,N/A,,Clear,170,2012-11-20 18:14:00
12:35 PM,57.0,20.1,24,30.14,10.0,South,8.1,-,N/A,,Clear,180,2012-11-20 18:35:00
12:55 PM,57.9,16.2,20,30.13,10.0,South,10.4,-,N/A,,Clear,190,2012-11-20 18:55:00
1:15 PM,58.3,17.2,20,30.12,10.0,SSW,10.4,-,N/A,,Clear,200,2012-11-20 19:15:00
1:35 PM,58.1,19.4,22,30.12,10.0,SSW,10.4,-,N/A,,Clear,200,2012-11-20 19:35:00
1:55 PM,57.4,25.9,30,30.11,10.0,South,8.1,-,N/A,,Clear,190,2012-11-20 19:55:00
2:15 PM,57.6,21.2,24,30.10,10.0,South,11.5,-,N/A,,Clear,190,2012-11-20 20:15:00
2:35 PM,57.7,21.9,25,30.09,10.0,South,10.4,-,N/A,,Clear,170,2012-11-20 20:35:00
2:55 PM,57.9,21.9,25,30.09,10.0,South,11.5,-,N/A,,Clear,170,2012-11-20 20:55:00
3:15 PM,58.1,23.0,26,30.09,10.0,South,9.2,-,N/A,,Clear,170,2012-11-20 21:15:00
3:35 PM,56.8,23.9,28,30.08,10.0,South,11.5,-,N/A,,Clear,170,2012-11-20 21:35:00
3:55 PM,56.3,23.7,28,30.07,10.0,South,11.5,-,N/A,,Clear,170,2012-11-20 21:55:00
4:15 PM,54.9,25.7,32,30.07,10.0,South,8.1,-,N/A,,Clear,170,2012-11-20 22:15:00
4:35 PM,52.9,26.6,36,30.07,10.0,SSE,6.9,-,N/A,,Clear,160,2012-11-20 22:35:00
4:55 PM,48.0,27.5,45,30.07,10.0,SSE,9.2,-,N/A,,Clear,150,2012-11-20 22:55:00
5:14 PM,46.9,27.7,47,30.07,10.0,SSE,10.4,-,N/A,,Clear,160,2012-11-20 23:14:00
5:35 PM,44.8,27.5,51,30.07,10.0,SSE,11.5,-,N/A,,Clear,160,2012-11-20 23:35:00
5:55 PM,44.8,27.5,51,30.06,10.0,SSE,11.5,-,N/A,,Clear,160,2012-11-20 23:55:00
6:15 PM,41.4,27.9,59,30.06,10.0,SSE,9.2,-,N/A,,Clear,160,2012-11-21 00:15:00
6:35 PM,40.8,28.0,60,30.06,10.0,SSE,12.7,-,N/A,,Clear,150,2012-11-21 00:35:00
6:55 PM,40.8,28.0,60,30.06,10.0,SSE,12.7,-,N/A,,Clear,160,2012-11-21 00:55:00
7:15 PM,39.7,27.9,63,30.05,10.0,SSE,12.7,-,N/A,,Clear,160,2012-11-21 01:15:00
7:35 PM,41.2,28.4,60,30.06,10.0,South,11.5,-,N/A,,Clear,170,2012-11-21 01:35:00
7:55 PM,45.5,30.0,55,30.05,10.0,South,13.8,-,N/A,,Clear,170,2012-11-21 01:55:00
8:15 PM,46.9,28.6,49,30.05,10.0,South,12.7,-,N/A,,Clear,170,2012-11-21 02:15:00
8:35 PM,47.7,29.5,49,30.05,10.0,South,13.8,-,N/A,,Clear,180,2012-11-21 02:35:00
8:55 PM,47.7,29.8,50,30.04,10.0,South,13.8,-,N/A,,Clear,180,2012-11-21 02:55:00
9:15 PM,47.5,30.0,51,30.04,10.0,South,13.8,19.6,N/A,,Clear,180,2012-11-21 03:15:00
9:35 PM,47.3,30.2,52,30.03,10.0,South,13.8,-,N/A,,Clear,180,2012-11-21 03:35:00
9:55 PM,46.9,30.4,53,30.02,10.0,South,15.0,20.7,N/A,,Clear,190,2012-11-21 03:55:00
10:14 PM,47.3,31.1,53,30.01,10.0,South,13.8,20.7,N/A,,Clear,190,2012-11-21 04:14:00
10:35 PM,48.0,31.5,53,30.00,10.0,South,18.4,26.5,N/A,,Clear,190,2012-11-21 04:35:00
10:55 PM,48.6,31.6,52,30.00,10.0,SSW,19.6,-,N/A,,Clear,200,2012-11-21 04:55:00
11:15 PM,48.4,31.6,52,30.00,10.0,South,18.4,24.2,N/A,,Clear,190,2012-11-21 05:15:00
11:35 PM,47.1,31.6,55,30.00,10.0,South,16.1,23.0,N/A,,Clear,190,2012-11-21 05:35:00
11:55 PM,46.0,31.8,58,29.99,10.0,South,15.0,23.0,N/A,,Clear,190,2012-11-21 05:55:00